Simultaneous Nadir Overpasses (SNOs) Predictions

Prediction of SNOs between METOP-A and NOAA-19 Satellite Orbit:

Table of predicted SNOs for the next 14.0 days since TLE Epoch: 1/23/2021
Index Date (METOP-A) Time (METOP-A) Lat,Lon (METOP-A) SZA (METOP-A ) Date (NOAA-19) Time (NOAA-19) Lat,Lon (NOAA-19) SZA (NOAA-19 ) Distance(km) Time Diff (sec)
1 01/31/2021 20:28:14 80.84,-114.80 98.03 01/31/2021 20:27:05 80.83,-114.83 98.02 0.99 69
2 01/31/2021 21:18:56 -80.82, 52.32 82.00 01/31/2021 21:18:01 -80.83, 52.19 82.00 2.46 55
3 01/31/2021 22:09:36 80.83,-140.28 98.00 01/31/2021 22:09:05 80.83,-140.17 98.00 2.00 31
4 01/31/2021 23:00:17 -80.84, 27.18 82.01 01/31/2021 23:00:00 -80.83, 27.22 82.02 1.37 17
5 01/31/2021 23:50:57 80.84,-165.42 98.00 01/31/2021 23:51:05 80.83,-165.51 97.98 2.27 8
6 02/01/2021 00:41:39 -80.83, 1.69 82.04 02/01/2021 00:42:01 -80.83, 1.52 82.04 3.14 22
7 02/01/2021 01:32:19 80.83, 169.09 97.96 02/01/2021 01:33:05 80.83, 169.15 97.96 1.32 46



Historial Predications of SNOs between METOP-A and NOAA-19
